CW5988 Weather Reports


Display with metric or nautical units.
time (UTC)temp
F
wind
direction
speed
MPH
gust
MPH
rain 1hr
in
rain 24hr
in
rain mn
in
humidity
%
barometer
mb
20260901152435 62 220 6.0 12.0 0.00 0.00 0.00 83 1015.6
20260901151938 62 212 3.0 10.0 0.00 0.00 0.00 84 1015.6
20260901151453 62 263 5.0 10.0 0.00 0.00 0.00 84 1015.6
20260901150919 62 196 4.0 12.0 0.00 0.00 0.00 84 1015.4
20260901150421 62 218 3.0 12.0 0.00 0.00 0.00 84 1015.5
20260901145924 61 188 5.0 10.0 0.00 0.00 0.00 84 1015.4
20260901145429 61 208 5.0 10.0 0.00 0.00 0.00 84 1015.3
20260901144926 61 217 4.0 10.0 0.00 0.00 0.00 84 1015.2
20260901144431 61 292 4.0 10.0 0.00 0.00 0.00 84 1015.1
20260901143934 61 230 3.0 11.0 0.00 0.00 0.00 84 1015.2
20260901143445 61 247 6.0 11.0 0.00 0.00 0.00 84 1015.0
20260901142946 61 268 4.0 13.0 0.00 0.00 0.00 84 1015.0
20260901142424 61 237 5.0 9.0 0.00 0.00 0.00 84 1014.9
20260901141918 61 203 3.0 9.0 0.00 0.00 0.00 85 1014.9
20260901141422 61 256 4.0 9.0 0.00 0.00 0.00 85 1014.7
20260901140925 61 211 4.0 9.0 0.00 0.00 0.00 84 1014.6
20260901140428 61 213 5.0 11.0 0.00 0.00 0.00 85 1014.6
20260901135932 61 198 6.0 11.0 0.00 0.00 0.00 85 1014.6
20260901135437 61 258 5.0 11.0 0.00 0.00 0.00 85 1014.5
20260901134922 61 261 4.0 9.0 0.00 0.00 0.00 85 1014.4
20260901134422 61 251 5.0 8.0 0.00 0.00 0.00 85 1014.4
20260901133957 61 222 4.0 10.0 0.00 0.00 0.00 85 1014.4
20260901133439 61 222 3.0 10.0 0.00 0.00 0.00 85 1014.3
20260901132920 61 244 4.0 8.0 0.00 0.00 0.00 84 1014.3
20260901132445 61 261 3.0 7.0 0.00 0.00 0.00 84 1014.2
20260901131921 61 284 3.0 11.0 0.00 0.00 0.00 84 1014.1
20260901131420 61 242 4.0 11.0 0.00 0.00 0.00 84 1014.2
20260901130924 61 277 4.0 11.0 0.00 0.00 0.00 84 1014.1
20260901130431 61 213 6.0 9.0 0.00 0.00 0.00 84 1014.0
20260901125933 61 45 3.0 8.0 0.00 0.00 0.00 84 1014.1
20260901125420 61 239 4.0 8.0 0.00 0.00 0.00 84 1014.0
20260901124922 61 208 2.0 10.0 0.00 0.00 0.00 83 1013.9
20260901124428 61 230 5.0 10.0 0.00 0.00 0.00 83 1014.0
20260901123929 61 207 3.0 8.0 0.00 0.00 0.00 83 1014.0
20260901123433 61 215 4.0 8.0 0.00 0.00 0.00 83 1014.0
20260901122935 61 215 4.0 11.0 0.00 0.00 0.00 83 1014.0
20260901122420 61 226 4.0 11.0 0.00 0.00 0.00 83 1014.0
20260901121926 61 219 5.0 11.0 0.00 0.00 0.00 83 1013.9
20260901121433 61 228 4.0 10.0 0.00 0.00 0.00 83 1013.8
20260901120919 61 206 5.0 9.0 0.00 0.00 0.00 82 1013.7
20260901120424 61 261 3.0 10.0 0.00 0.00 0.00 82 1013.7
20260901115946 61 171 4.0 8.0 0.00 0.00 0.00 82 1013.8
20260901115431 61 203 3.0 8.0 0.00 0.00 0.00 82 1013.9
20260901114934 61 218 4.0 9.0 0.00 0.00 0.00 82 1013.9
20260901114420 61 268 4.0 9.0 0.00 0.00 0.00 82 1013.9
20260901113924 61 292 5.0 7.0 0.00 0.00 0.00 82 1013.8
20260901113426 61 227 3.0 6.0 0.00 0.00 0.00 82 1013.8
20260901112926 61 268 4.0 9.0 0.00 0.00 0.00 82 1013.9
20260901112432 61 242 5.0 9.0 0.00 0.00 0.00 82 1014.0
20260901111935 61 247 4.0 11.0 0.00 0.00 0.00 82 1014.0
20260901111420 61 163 8.0 11.0 0.00 0.00 0.00 82 1014.0
20260901110945 61 222 3.0 9.0 0.00 0.00 0.00 82 1014.0
20260901110427 61 249 6.0 10.0 0.00 0.00 0.00 81 1014.0
20260901105955 61 222 6.0 10.0 0.00 0.00 0.00 81 1014.0
20260901105419 61 276 5.0 10.0 0.00 0.00 0.00 81 1014.0
20260901104923 61 301 3.0 10.0 0.00 0.00 0.00 81 1014.0
20260901104455 61 216 4.0 10.0 0.00 0.00 0.00 81 1014.0
20260901103920 61 285 5.0 11.0 0.00 0.00 0.00 81 1014.0
20260901103425 61 215 5.0 11.0 0.00 0.00 0.00 81 1013.9
20260901102959 61 219 3.0 10.0 0.00 0.00 0.00 81 1014.0
20260901102438 61 213 5.0 12.0 0.00 0.00 0.00 81 1013.9
20260901101922 61 207 5.0 12.0 0.00 0.00 0.00 81 1013.9
20260901101458 61 187 5.0 10.0 0.00 0.00 0.00 81 1013.8
20260901100942 61 182 5.0 11.0 0.00 0.00 0.00 81 1013.8
20260901100506 61 205 6.0 12.0 0.00 0.00 0.00 81 1013.8
20260901095957 61 217 6.0 12.0 0.00 0.00 0.00 81 1013.8
20260901095437 61 228 6.0 10.0 0.00 0.00 0.00 81 1013.8
20260901094940 61 203 5.0 11.0 0.00 0.00 0.00 81 1013.8
20260901094423 61 203 4.0 10.0 0.00 0.00 0.00 80 1013.8
20260901093931 61 200 4.0 10.0 0.00 0.00 0.00 80 1013.8
20260901093436 61 220 4.0 10.0 0.00 0.00 0.00 80 1013.8
20260901092938 61 230 6.0 10.0 0.00 0.00 0.00 80 1013.8
20260901092430 61 212 3.0 9.0 0.00 0.00 0.00 80 1013.8
20260901091935 61 198 4.0 9.0 0.00 0.00 0.00 80 1013.8
20260901091422 61 238 4.0 10.0 0.00 0.00 0.00 79 1013.8
20260901090955 61 224 5.0 9.0 0.00 0.00 0.00 79 1013.8
20260901090437 61 225 6.0 10.0 0.00 0.00 0.00 79 1013.9
20260901085921 61 239 4.0 10.0 0.00 0.00 0.00 79 1013.8
20260901085448 61 219 5.0 11.0 0.00 0.00 0.00 79 1013.9
20260901084930 61 222 6.0 12.0 0.00 0.00 0.00 79 1013.8
20260901084434 61 207 7.0 12.0 0.00 0.00 0.00 79 1013.8
20260901083949 61 207 6.0 12.0 0.00 0.00 0.00 79 1013.7
20260901083430 61 221 7.0 12.0 0.00 0.00 0.00 79 1013.7
20260901082935 61 195 4.0 9.0 0.00 0.00 0.00 78 1013.9
20260901082421 61 199 5.0 9.0 0.00 0.00 0.00 78 1013.8
20260901081926 61 217 4.0 11.0 0.00 0.00 0.00 78 1013.9
20260901081426 61 226 6.0 12.0 0.00 0.00 0.00 78 1013.8
20260901080933 61 210 6.0 12.0 0.00 0.00 0.00 78 1013.7
20260901080418 61 226 5.0 11.0 0.00 0.00 0.00 78 1013.8
20260901075922 61 222 4.0 8.0 0.00 0.00 0.00 78 1013.8
20260901075427 61 249 5.0 8.0 0.00 0.00 0.00 78 1013.7
20260901074928 61 227 4.0 9.0 0.00 0.00 0.00 78 1013.8
20260901074435 61 249 3.0 11.0 0.00 0.00 0.00 78 1013.9
20260901073935 61 171 5.0 11.0 0.00 0.00 0.00 78 1013.8
20260901073439 61 224 4.0 9.0 0.00 0.00 0.00 79 1013.8
20260901072940 61 206 5.0 10.0 0.00 0.00 0.00 79 1013.8
20260901072424 61 218 4.0 8.0 0.00 0.00 0.00 79 1013.8
20260901071928 61 216 5.0 10.0 0.00 0.00 0.00 79 1013.9
20260901071434 61 196 6.0 11.0 0.00 0.00 0.00 79 1013.7
20260901070918 61 185 5.0 11.0 0.00 0.00 0.00 80 1013.8
20260901070507 61 221 5.0 8.0 0.00 0.00 0.00 80 1013.7
20260901065924 61 177 3.0 10.0 0.00 0.00 0.00 80 1013.8
20260901065430 61 268 6.0 10.0 0.00 0.00 0.00 80 1013.7
20260901064933 61 268 5.0 9.0 0.00 0.00 0.00 79 1013.8
20260901064438 61 243 5.0 9.0 0.00 0.00 0.00 79 1013.8
20260901063953 61 263 4.0 9.0 0.00 0.00 0.00 78 1013.8
20260901063429 62 216 5.0 10.0 0.00 0.00 0.00 78 1013.8
20260901062932 62 88 5.0 10.0 0.00 0.00 0.00 77 1013.9
20260901062417 62 252 4.0 13.0 0.00 0.00 0.00 77 1013.9
20260901061944 62 215 7.0 13.0 0.00 0.00 0.00 77 1013.8
20260901061429 62 268 6.0 14.0 0.00 0.00 0.00 77 1013.9
20260901060933 62 259 6.0 14.0 0.00 0.00 0.00 77 1013.9
20260901060431 62 235 5.0 9.0 0.00 0.00 0.00 77 1014.0
20260901055934 62 230 5.0 14.0 0.00 0.00 0.00 77 1014.0
20260901055419 62 294 6.0 14.0 0.00 0.00 0.00 77 1014.0
20260901054945 62 237 7.0 13.0 0.00 0.00 0.00 77 1014.0
20260901054430 62 207 5.0 11.0 0.00 0.00 0.00 77 1014.0
20260901053937 62 238 5.0 13.0 0.00 0.00 0.00 77 1014.1
20260901053419 61 193 5.0 13.0 0.00 0.00 0.00 77 1014.1
20260901052919 61 275 6.0 13.0 0.00 0.00 0.00 77 1014.1
20260901052445 62 270 6.0 13.0 0.00 0.00 0.00 77 1014.2
20260901051956 62 306 5.0 12.0 0.00 0.00 0.00 77 1014.1
20260901051419 62 272 5.0 8.0 0.00 0.00 0.00 77 1014.2
20260901050925 62 292 4.0 16.0 0.00 0.00 0.00 76 1014.2
20260901050432 62 242 5.0 16.0 0.00 0.00 0.00 76 1014.1
20260901045931 62 288 5.0 10.0 0.00 0.00 0.00 76 1014.1
20260901045436 62 280 5.0 10.0 0.00 0.00 0.00 76 1014.0
20260901044921 62 294 4.0 10.0 0.00 0.00 0.00 76 1014.0
20260901044425 62 238 5.0 10.0 0.00 0.00 0.00 76 1014.0
20260901043932 62 313 4.0 8.0 0.00 0.00 0.00 75 1014.0
20260901043434 62 280 4.0 8.0 0.00 0.00 0.00 75 1013.9
20260901042937 62 249 4.0 11.0 0.00 0.00 0.00 75 1013.9
20260901042419 62 222 7.0 11.0 0.00 0.00 0.00 75 1014.0
20260901041918 62 249 4.0 14.0 0.00 0.00 0.00 75 1014.0
20260901041432 62 280 4.0 11.0 0.00 0.00 0.00 75 1013.9
20260901040947 62 228 3.0 8.0 0.00 0.00 0.00 75 1013.9
20260901040430 62 251 3.0 10.0 0.00 0.00 0.00 75 1013.8
20260901035935 62 308 5.0 10.0 0.00 0.00 0.00 75 1013.8
20260901035418 61 276 5.0 10.0 0.00 0.00 0.00 76 1013.8
20260901034936 62 222 6.0 17.0 0.00 0.00 0.00 76 1013.8
20260901034444 61 261 6.0 17.0 0.00 0.00 0.00 76 1013.7
20260901033956 62 228 6.0 12.0 0.00 0.00 0.00 76 1013.5
20260901033418 61 239 5.0 13.0 0.00 0.00 0.00 76 1013.6
20260901032922 61 295 5.0 13.0 0.00 0.00 0.00 77 1013.5
20260901032441 61 282 5.0 11.0 0.00 0.00 0.00 78 1013.5
20260901031920 61 244 5.0 12.0 0.00 0.00 0.00 78 1013.4
20260901031453 61 248 6.0 12.0 0.00 0.00 0.00 78 1013.4
20260901030917 61 282 4.0 12.0 0.00 0.00 0.00 78 1013.3
20260901030418 61 268 6.0 12.0 0.00 0.00 0.00 78 1013.2
20260901025920 62 263 7.0 13.0 0.00 0.00 0.00 78 1013.2
20260901025445 62 247 6.0 13.0 0.00 0.00 0.00 78 1013.3
20260901024925 62 208 8.0 13.0 0.00 0.00 0.00 76 1013.3
20260901024431 62 249 5.0 13.0 0.00 0.00 0.00 76 1013.3
20260901023936 62 252 3.0 10.0 0.00 0.00 0.00 75 1013.2
20260901023420 62 14 4.0 12.0 0.00 0.00 0.00 75 1013.2
20260901022921 62 313 6.0 14.0 0.00 0.00 0.00 75 1013.3
20260901022449 62 273 5.0 16.0 0.00 0.00 0.00 76 1013.2
20260901021956 62 210 8.0 16.0 0.00 0.00 0.00 75 1013.2
20260901021420 62 257 6.0 13.0 0.00 0.00 0.00 75 1013.3
20260901020955 62 282 7.0 12.0 0.00 0.00 0.00 74 1013.3
20260901020505 62 270 5.0 13.0 0.00 0.00 0.00 74 1013.2
20260901015958 62 264 6.0 13.0 0.00 0.00 0.00 74 1013.2
20260901015452 62 271 5.0 13.0 0.00 0.00 0.00 74 1013.2
20260901014932 62 271 8.0 14.0 0.00 0.00 0.00 74 1013.3
20260901014418 62 225 8.0 14.0 0.00 0.00 0.00 73 1013.2
20260901013923 62 246 7.0 13.0 0.00 0.00 0.00 73 1013.2
20260901013427 63 359 7.0 15.0 0.00 0.00 0.00 73 1013.2
20260901012932 63 120 8.0 15.0 0.00 0.00 0.00 73 1013.3
20260901012437 63 244 7.0 11.0 0.00 0.00 0.00 73 1013.3
20260901011923 63 253 5.0 15.0 0.00 0.00 0.00 73 1013.2
20260901011424 63 273 6.0 15.0 0.00 0.00 0.00 73 1013.2
20260901010930 63 215 4.0 15.0 0.00 0.00 0.00 73 1013.1
20260901010434 63 249 7.0 16.0 0.00 0.00 0.00 74 1013.1
20260901005937 63 285 6.0 16.0 0.00 0.00 0.00 73 1013.1
20260901005453 63 278 3.0 13.0 0.00 0.00 0.00 74 1013.0
20260901004938 63 290 7.0 13.0 0.00 0.00 0.00 74 1013.2
20260901004423 63 212 5.0 13.0 0.00 0.00 0.00 74 1013.2
20260901003925 63 205 5.0 13.0 0.00 0.00 0.00 74 1013.2
20260901003432 63 329 7.0 18.0 0.00 0.00 0.00 75 1013.2
20260901002917 64 271 9.0 18.0 0.00 0.00 0.00 75 1013.2
20260901002422 64 256 7.0 16.0 0.00 0.00 0.00 75 1013.3
20260901001927 63 243 8.0 16.0 0.00 0.00 0.00 75 1013.2
20260901001431 63 209 9.0 13.0 0.00 0.00 0.00 76 1013.3
20260901000937 63 185 7.0 20.0 0.00 0.00 0.00 76 1013.4
20260901000437 63 210 9.0 20.0 0.00 0.00 0.00 76 1013.3
20260831235951 63 252 7.0 18.0 0.00 0.00 0.00 77 1013.3
20260831235434 63 239 7.0 18.0 0.00 0.00 0.00 77 1013.3
20260831234918 63 289 6.0 14.0 0.00 0.00 0.00 78 1013.5
20260831234423 63 273 8.0 15.0 0.00 0.00 0.00 77 1013.4
20260831233928 64 231 4.0 12.0 0.00 0.00 0.00 77 1013.6
20260831233433 64 218 5.0 14.0 0.00 0.00 0.00 77 1013.5
20260831232934 64 238 7.0 15.0 0.00 0.00 0.00 77 1013.5
20260831232451 64 273 10.0 15.0 0.00 0.00 0.00 77 1013.5
20260831231936 64 290 8.0 16.0 0.00 0.00 0.00 77 1013.4
20260831231419 64 280 8.0 16.0 0.00 0.00 0.00 77 1013.5
20260831230929 64 209 7.0 15.0 0.00 0.00 0.00 77 1013.5
20260831230432 64 280 8.0 15.0 0.00 0.00 0.00 76 1013.6
20260831225935 64 276 4.0 16.0 0.00 0.00 0.00 77 1013.7
20260831225421 64 259 8.0 16.0 0.00 0.00 0.00 76 1013.7
20260831224936 64 292 3.0 9.0 0.00 0.00 0.00 77 1013.8
20260831224422 64 99 4.0 15.0 0.00 0.00 0.00 77 1013.9
20260831223925 63 264 7.0 17.0 0.00 0.00 0.00 77 1013.8
20260831223427 63 229 7.0 17.0 0.00 0.00 0.00 76 1013.8
20260831222933 64 287 6.0 12.0 0.00 0.00 0.00 77 1013.8
20260831222437 63 282 5.0 12.0 0.00 0.00 0.00 78 1013.9
20260831221920 63 289 6.0 16.0 0.00 0.00 0.00 78 1014.0
20260831221422 63 261 8.0 16.0 0.00 0.00 0.00 78 1013.8
20260831220927 63 264 7.0 16.0 0.00 0.00 0.00 78 1013.9
20260831220432 63 268 9.0 16.0 0.00 0.00 0.00 78 1014.0
20260831215945 63 277 8.0 15.0 0.00 0.00 0.00 78 1014.0
20260831215432 63 283 9.0 15.0 0.00 0.00 0.00 78 1014.2
20260831214935 63 244 8.0 14.0 0.00 0.00 0.00 78 1014.3
20260831214418 63 282 7.0 14.0 0.00 0.00 0.00 78 1014.3
20260831213942 63 211 9.0 14.0 0.00 0.00 0.00 77 1014.3
20260831213425 63 210 5.0 14.0 0.00 0.00 0.00 78 1014.4
20260831212931 63 282 4.0 13.0 0.00 0.00 0.00 78 1014.4
20260831212436 63 216 6.0 13.0 0.00 0.00 0.00 78 1014.3
20260831211942 62 279 6.0 16.0 0.00 0.00 0.00 78 1014.5
20260831211423 63 247 8.0 16.0 0.00 0.00 0.00 78 1014.6
20260831210927 63 280 7.0 17.0 0.00 0.00 0.00 78 1014.6
20260831210431 63 257 6.0 17.0 0.00 0.00 0.00 77 1014.7
20260831205937 63 235 8.0 12.0 0.00 0.00 0.00 77 1014.8
20260831205421 63 275 4.0 13.0 0.00 0.00 0.00 78 1014.7
20260831204956 63 282 7.0 14.0 0.00 0.00 0.00 78 1014.6
20260831204419 63 218 7.0 14.0 0.00 0.00 0.00 78 1014.7
20260831203925 63 292 3.0 16.0 0.00 0.00 0.00 79 1014.6
20260831203423 62 242 7.0 16.0 0.00 0.00 0.00 78 1014.7
20260831202957 62 302 3.0 13.0 0.00 0.00 0.00 79 1014.6
20260831202422 62 275 6.0 14.0 0.00 0.00 0.00 79 1014.6
20260831201946 62 290 9.0 14.0 0.00 0.00 0.00 78 1014.5
20260831201429 62 276 6.0 12.0 0.00 0.00 0.00 79 1014.6
20260831200932 62 295 7.0 13.0 0.00 0.00 0.00 79 1014.6
20260831200433 62 232 5.0 13.0 0.00 0.00 0.00 79 1014.6
20260831195935 62 290 7.0 16.0 0.00 0.00 0.00 79 1014.6
20260831195420 62 299 6.0 13.0 0.00 0.00 0.00 79 1014.5
20260831194923 62 283 6.0 18.0 0.00 0.00 0.00 80 1014.5
20260831194429 62 280 7.0 18.0 0.00 0.00 0.00 79 1014.6
20260831193935 62 265 5.0 11.0 0.00 0.00 0.00 79 1014.7
20260831193436 62 247 4.0 12.0 0.00 0.00 0.00 80 1014.7
20260831192935 62 226 4.0 14.0 0.00 0.00 0.00 80 1014.7
20260831192421 61 270 7.0 15.0 0.00 0.00 0.00 80 1014.8
20260831191926 62 225 8.0 15.0 0.00 0.00 0.00 80 1014.8
20260831191433 62 345 4.0 11.0 0.00 0.00 0.00 80 1014.8
20260831190918 61 209 4.0 11.0 0.00 0.00 0.00 81 1014.7
20260831190425 61 62 5.0 10.0 0.00 0.00 0.00 80 1014.6
20260831185941 61 268 5.0 11.0 0.00 0.00 0.00 81 1014.7
20260831185452 61 273 7.0 11.0 0.00 0.00 0.00 81 1014.8
20260831184936 61 222 3.0 15.0 0.00 0.00 0.00 82 1014.8
20260831184441 61 228 6.0 15.0 0.00 0.00 0.00 81 1014.9
20260831183946 61 203 6.0 16.0 0.00 0.00 0.00 81 1014.9
20260831183426 61 232 6.0 17.0 0.00 0.00 0.00 82 1014.9
20260831182929 61 275 3.0 13.0 0.00 0.00 0.00 82 1014.9
20260831182431 61 306 4.0 9.0 0.00 0.00 0.00 82 1014.8
20260831181930 60 268 4.0 10.0 0.00 0.00 0.00 83 1014.8
20260831181437 60 284 5.0 12.0 0.00 0.00 0.00 83 1014.7
20260831180920 60 237 4.0 12.0 0.00 0.00 0.00 83 1014.8
20260831180425 60 259 2.0 13.0 0.00 0.00 0.00 84 1014.8
20260831175930 60 263 5.0 9.0 0.00 0.00 0.00 84 1014.8
20260831175435 59 217 3.0 10.0 0.00 0.00 0.00 84 1014.8
20260831174936 59 213 4.0 11.0 0.00 0.00 0.00 84 1014.9
20260831174437 59 235 4.0 11.0 0.00 0.00 0.00 85 1014.8
20260831173921 59 232 2.0 11.0 0.00 0.00 0.00 85 1014.7
20260831173424 59 218 6.0 13.0 0.00 0.00 0.00 85 1014.6
20260831172928 59 285 6.0 14.0 0.00 0.00 0.00 85 1014.7
20260831172433 59 273 8.0 14.0 0.00 0.00 0.00 85 1014.7
20260831171918 59 230 3.0 10.0 0.00 0.00 0.00 85 1014.7
20260831171418 59 268 2.0 10.0 0.00 0.00 0.00 85 1014.6
20260831170921 59 297 3.0 14.0 0.00 0.00 0.00 85 1014.6
20260831170427 58 335 6.0 14.0 0.00 0.00 0.00 85 1014.5
20260831165935 58 302 4.0 15.0 0.00 0.00 0.00 85 1014.5
20260831165419 58 273 8.0 15.0 0.00 0.00 0.00 85 1014.5
20260831164921 58 222 7.0 13.0 0.00 0.00 0.00 85 1014.4
20260831164423 58 254 8.0 12.0 0.00 0.00 0.00 85 1014.5
20260831163943 58 224 6.0 12.0 0.00 0.00 0.00 85 1014.4
20260831163445 58 239 4.0 10.0 0.00 0.00 0.00 86 1014.4
20260831162930 58 317 4.0 13.0 0.00 0.00 0.00 86 1014.4
20260831162434 58 243 7.0 13.0 0.00 0.00 0.00 86 1014.3
20260831161918 58 282 7.0 13.0 0.00 0.00 0.00 86 1014.3
20260831161424 58 45 4.0 10.0 0.00 0.00 0.00 86 1014.1
20260831160927 58 218 6.0 10.0 0.00 0.00 0.00 86 1014.0
20260831160429 58 284 3.0 9.0 0.00 0.00 0.00 86 1014.0
20260831155935 58 27 2.0 13.0 0.00 0.00 0.00 86 1014.0
20260831155420 58 324 3.0 13.0 0.00 0.00 0.00 86 1014.0
20260831154924 58 188 1.0 3.0 0.00 0.00 0.00 86 1014.1
20260831154427 58 323 2.0 8.0 0.00 0.00 0.00 86 1014.0
20260831153930 58 234 3.0 9.0 0.00 0.00 0.00 86 1014.1
20260831153430 58 123 4.0 13.0 0.00 0.00 0.00 86 1014.1
20260831152935 58 196 6.0 13.0 0.00 0.00 0.00 86 1014.0